Temp
55 55 53 52 52 52 51 52 52 52 51 50 50 49 49 49 49 49 49 49 47 48 47 47 46 45 46 46 46 47 47 48 48 40 42 40 39 39 38 39 40 40 39
55 53 52 52 51 50 50 50 50 49 49 48 48 47 47 47 48 47 47 46 46 45 45 44 44 44 44 44 45 44 45 45 46 38 38 38 37 37 38 38 38 39 40
53 51 51 49 50 49 49 49 48 47 47 47 46 45 46 46 46 46 46 45 44 45 44 44 44 43 42 42 43 42 42 41 43 40 36 38 36 36 36 36 36 36 37
50 48 48 48 49 49 48 47 46 46 45 45 45 45 44 45 44 44 44 43 43 43 42 42 42 41 41 40 39 40 39 38 40 39 36 34 34 32 33 32 32 33 33
49 48 48 48 49 47 46 45 45 44 44 44 43 43 43 43 43 43 42 42 41 40 39 39 38 37 34 37 37 37 38 37 37 35 33 32 31 29 30 30 31 30 29
47 46 47 46 45 43 43 43 42 42 42 42 41 41 41 42 40 38 40 40 39 37 36 36 35 32 33 33 33 33 36 36 34 34 33 31 29 29 28 28 27 27 27
45 45 43 42 41 41 41 40 39 40 41 40 39 39 39 40 39 37 37 38 37 37 36 34 33 34 33 34 33 32 30 31 33 34 32 31 27 27 27 24 24 24 25
42 42 41 39 39 38 38 37 38 39 38 38 38 38 38 38 37 37 36 37 37 36 36 35 34 33 34 33 31 27 26 27 28 30 29 27 27 26 27 25 22 20 19
39 38 38 38 36 36 34 35 37 36 36 36 37 37 36 37 36 37 37 34 33 34 34 35 34 32 31 30 28 25 24 24 27 28 28 27 25 24 23 20 16 17 16
34 34 35 35 34 34 35 34 35 34 33 34 33 35 34 35 36 37 36 32 30 30 30 28 28 31 31 30 27 24 20 20 22 22 22 22 21 20 20 20 17 15 15
31 31 31 32 31 32 33 33 32 32 31 31 31 32 32 33 35 37 37 30 29 28 27 27 28 29 30 29 28 23 21 20 19 16 16 16 15 15 15 15 16 16 13
26 26 27 27 29 30 29 30 30 29 29 29 29 30 31 31 31 35 36 31 30 26 25 25 26 29 29 28 25 26 24 19 17 15 14 13 13 12 11 12 11 12 13
21 21 24 25 26 27 27 28 28 29 28 29 29 29 29 29 29 33 34 32 29 25 24 25 27 28 28 25 25 24 17 15 14 13 13 12 11 11 10 9 10 10 10
18 20 23 23 24 26 27 28 28 27 27 27 27 27 28 27 27 29 30 31 28 25 25 25 27 26 23 23 20 16 14 14 13 13 11 10 10 9 8 10 8 8 9
17 20 22 23 23 24 26 26 26 28 28 26 27 28 26 25 27 30 29 29 26 24 22 23 22 18 14 12 12 11 11 11 10 10 8 7 8 8 6 7 6 4 6
15 19 20 21 23 23 23 24 28 29 30 30 31 29 28 29 29 30 31 29 26 26 21 18 15 13 11 11 9 8 9 8 8 7 7 8 6 6 4 3 3 3 3
12 15 18 19 20 20 21 21 20 25 28 29 30 30 30 27 28 29 30 29 27 24 16 15 14 12 11 10 9 8 7 8 7 6 6 5 4 4 2 1 2 2 1
10 13 15 17 18 18 19 19 20 19 20 23 28 28 30 28 28 29 30 27 22 17 15 13 12 12 11 11 10 8 7 5 4 4 3 3 2 1 -0 -0 -0 -2 -1
11 13 14 15 16 15 17 18 19 19 20 21 23 23 21 27 27 28 29 23 15 11 12 12 12 11 10 10 9 7 5 3 3 2 1 -1 -1 -2 -2 -2 -2 -5 -7
11 9 9 13 13 14 15 15 16 16 17 18 19 18 19 20 15 13 18 15 13 10 10 9 9 8 8 7 5 4 3 1 -0 -1 -1 -2 -3 -3 -3 -5 -5 -5 -7
10 11 7 12 12 12 13 13 14 14 14 15 15 16 18 14 11 11 11 11 11 10 9 8 6 5 5 4 3 1 0 -0 -1 -2 -2 -4 -5 -7 -6 -4 -5 -8 -6
9 9 10 9 10 11 11 12 12 12 13 13 13 14 17 14 12 10 9 9 8 8 8 7 5 5 4 2 2 1 -1 -1 -3 -4 -4 -6 -8 -8 -8 -8 -8 -7 -8
9 8 9 9 9 7 10 10 10 10 11 11 12 12 11 12 12 10 9 8 6 5 4 5 4 2 2 1 1 1 -1 -2 -3 -4 -5 -7 -9 -8 -10 -8 -9 -10 -9
8 8 7 8 8 8 8 8 8 8 8 9 9 9 9 9 9 8 7 5 4 2 0 -0 1 1 -2 -3 -3 -3 -2 -3 -4 -6 -5 -6 -7 -9 -8 -10 -9 -10 -9
6 7 7 7 6 7 6 7 7 6 6 6 6 6 5 4 4 4 3 1 -0 -1 -3 -4 -4 -4 -5 -6 -6 -7 -7 -5 -9 -8 -9 -8 -7 -8 -10 -10 -9 -9 -10
6 5 5 5 4 4 4 3 4 3 2 2 2 1 1 1 1 0 -1 -3 -4 -5 -5 -5 -6 -7 -7 -6 -6 -7 -9 -7 -7 -11 -10 -9 -10 -10 -11 -12 -13 -11 -11
MSLP
1017.03 1017.14 1017.15 1017.06 1017.17 1017.24 1017.22 1017.12 1017.14 1017.07 1017.03 1016.82 1016.72 1016.69 1016.68 1016.61 1016.52 1016.55 1016.40 1016.46 1016.42 1016.29 1016.32 1016.22 1016.33 1016.49 1016.43 1016.57 1016.69 1016.60 1016.60 1016.78 1017.09 1019.52 1020.27 1021.52 1022.23 1022.50 1022.92 1023.18 1023.43 1023.50 1023.83
1016.81 1016.95 1016.87 1017.00 1017.11 1017.15 1016.95 1016.88 1016.98 1016.80 1016.83 1016.76 1016.61 1016.42 1016.36 1016.33 1016.30 1016.24 1016.07 1016.24 1016.39 1016.35 1016.23 1016.27 1016.27 1016.52 1016.50 1016.68 1016.71 1016.73 1016.72 1016.91 1016.93 1018.38 1019.99 1021.10 1021.85 1022.48 1022.73 1022.99 1023.45 1023.60 1023.61
1016.39 1016.46 1016.44 1016.42 1016.39 1016.40 1016.18 1016.22 1016.45 1016.39 1016.48 1016.49 1016.46 1016.32 1016.17 1016.10 1016.07 1016.01 1015.97 1016.09 1016.13 1016.10 1016.17 1016.18 1016.20 1016.44 1016.52 1016.78 1016.87 1017.03 1017.18 1017.32 1017.31 1017.98 1019.48 1020.72 1021.70 1022.33 1022.63 1023.11 1023.46 1023.73 1023.98
1016.12 1016.15 1016.05 1015.83 1016.01 1015.92 1015.85 1015.95 1016.04 1016.21 1016.31 1016.20 1016.11 1016.03 1015.96 1015.94 1015.85 1015.76 1015.71 1015.79 1015.90 1015.99 1016.08 1016.10 1016.22 1016.40 1016.56 1016.96 1017.22 1017.34 1017.43 1017.46 1017.65 1018.14 1019.22 1020.35 1021.14 1022.36 1022.50 1022.81 1023.29 1023.68 1023.90
1016.05 1015.91 1015.87 1015.78 1015.59 1015.53 1015.59 1015.62 1015.64 1015.73 1015.74 1015.74 1015.72 1015.66 1015.62 1015.56 1015.35 1015.39 1015.46 1015.57 1015.71 1015.90 1016.07 1016.19 1016.32 1016.49 1016.76 1017.04 1017.34 1017.63 1017.69 1017.71 1017.84 1018.31 1019.14 1020.14 1020.98 1021.96 1022.10 1022.67 1022.89 1023.27 1023.81
1016.25 1016.05 1015.76 1015.59 1015.54 1015.57 1015.54 1015.45 1015.28 1015.04 1014.90 1014.97 1014.95 1015.05 1015.08 1015.15 1015.30 1015.52 1015.41 1015.40 1015.46 1015.58 1015.87 1016.18 1016.43 1016.70 1016.78 1017.01 1017.33 1017.72 1017.98 1018.07 1018.17 1018.33 1018.89 1019.60 1020.79 1021.47 1022.06 1022.41 1023.00 1023.25 1023.64
1016.29 1016.03 1015.84 1015.69 1015.43 1015.22 1015.08 1015.02 1014.98 1014.86 1014.81 1014.60 1014.43 1014.39 1014.31 1014.49 1014.81 1015.19 1015.55 1015.64 1015.67 1015.61 1015.54 1015.82 1016.32 1016.53 1016.70 1016.88 1017.17 1017.51 1017.99 1018.44 1018.82 1018.77 1019.06 1019.65 1020.89 1021.81 1022.64 1022.66 1023.48 1024.18 1024.63
1016.37 1016.15 1016.03 1015.81 1015.53 1015.29 1015.01 1014.76 1014.66 1014.62 1014.53 1014.33 1014.02 1013.86 1013.86 1013.84 1014.03 1014.36 1014.78 1015.32 1015.66 1015.69 1015.68 1015.56 1015.99 1016.28 1016.32 1016.63 1017.34 1017.75 1018.27 1018.79 1019.08 1019.35 1019.99 1020.51 1021.21 1021.94 1022.43 1023.15 1024.01 1024.80 1025.36
1016.67 1016.52 1016.29 1015.98 1015.56 1015.29 1014.95 1014.62 1014.31 1014.11 1013.96 1013.89 1013.83 1013.69 1013.26 1012.31 1012.67 1013.68 1014.46 1015.10 1015.37 1015.75 1015.89 1015.97 1015.94 1016.26 1016.93 1017.17 1017.69 1018.55 1018.58 1019.47 1020.42 1020.51 1020.58 1021.34 1022.07 1022.59 1022.97 1023.82 1024.44 1024.90 1025.24
1017.39 1017.04 1016.68 1016.24 1015.78 1015.28 1014.81 1014.46 1014.27 1014.20 1013.83 1013.62 1013.07 1013.33 1013.50 1013.33 1013.32 1012.09 1011.54 1014.30 1015.35 1015.56 1016.34 1016.69 1016.81 1016.72 1016.74 1017.35 1017.41 1018.13 1019.41 1019.82 1020.35 1020.91 1021.55 1022.19 1022.79 1023.76 1023.66 1024.10 1024.68 1025.00 1025.34
1018.04 1017.45 1016.83 1016.36 1015.90 1015.37 1014.80 1014.52 1014.16 1013.87 1013.67 1013.36 1013.14 1012.91 1012.63 1012.96 1013.28 1013.24 1013.14 1013.29 1013.02 1013.97 1016.05 1016.86 1017.03 1017.17 1017.76 1017.72 1017.89 1018.41 1019.35 1020.35 1020.79 1021.59 1022.33 1022.91 1023.73 1023.96 1024.19 1024.87 1025.25 1025.68 1025.60
1018.38 1017.65 1016.99 1016.52 1016.03 1015.42 1014.85 1014.44 1014.09 1013.77 1013.40 1013.09 1012.76 1012.48 1012.33 1012.72 1012.49 1012.82 1012.91 1013.38 1014.15 1014.34 1014.49 1015.42 1016.96 1017.39 1017.78 1018.02 1018.44 1018.87 1019.82 1020.76 1021.55 1022.12 1022.69 1023.32 1023.76 1024.12 1024.63 1025.15 1025.87 1026.36 1026.41
1018.73 1017.92 1017.20 1016.57 1015.99 1015.50 1014.94 1014.34 1013.94 1013.52 1013.20 1012.55 1012.50 1012.26 1011.96 1012.12 1012.15 1012.17 1012.21 1012.74 1013.63 1014.45 1015.02 1014.88 1015.51 1015.92 1017.57 1018.00 1018.52 1019.22 1020.84 1021.07 1021.55 1022.16 1022.77 1023.51 1024.24 1024.80 1025.34 1025.80 1025.82 1026.09 1026.43
1019.09 1018.22 1017.40 1016.65 1015.86 1015.34 1014.83 1014.28 1013.79 1013.26 1012.74 1012.34 1011.99 1011.81 1011.81 1011.80 1011.79 1011.91 1011.87 1012.17 1013.21 1014.21 1014.78 1014.82 1015.46 1016.25 1016.88 1018.39 1018.94 1020.20 1021.31 1021.54 1021.76 1022.13 1022.84 1023.82 1024.72 1025.15 1025.54 1025.79 1025.56 1026.07 1026.12
1019.46 1018.49 1017.58 1016.80 1016.20 1015.49 1014.75 1014.18 1013.84 1013.29 1012.60 1012.21 1011.75 1011.63 1011.45 1011.49 1011.38 1011.19 1011.30 1011.32 1012.27 1013.47 1014.90 1015.51 1015.53 1016.24 1017.66 1019.22 1020.31 1020.61 1021.34 1021.80 1022.18 1022.75 1023.26 1023.98 1024.67 1025.14 1025.69 1025.97 1026.26 1026.22 1026.30
1019.38 1018.45 1017.79 1017.08 1016.23 1015.53 1014.67 1014.01 1013.73 1013.02 1012.41 1011.83 1011.29 1011.11 1011.16 1011.08 1011.13 1010.98 1010.95 1011.23 1012.22 1013.15 1014.50 1015.54 1016.07 1016.60 1017.87 1019.24 1020.20 1020.63 1021.18 1022.04 1022.21 1023.13 1023.24 1023.64 1024.66 1025.30 1025.72 1026.32 1026.37 1026.47 1026.56
1019.87 1018.91 1018.02 1017.33 1016.76 1016.08 1015.36 1014.63 1013.62 1012.71 1012.14 1011.55 1010.96 1010.67 1010.58 1011.04 1010.86 1010.74 1010.69 1011.32 1012.11 1013.30 1014.56 1015.64 1016.39 1017.17 1017.94 1019.46 1020.12 1020.30 1021.15 1021.92 1022.35 1023.07 1023.55 1023.76 1024.21 1025.44 1025.95 1026.14 1026.70 1026.61 1026.70
1020.03 1019.26 1018.51 1017.69 1016.92 1016.26 1015.86 1015.18 1014.43 1013.33 1012.34 1011.65 1011.01 1010.67 1010.15 1010.68 1010.93 1010.72 1010.57 1011.68 1012.63 1014.21 1014.81 1015.56 1016.47 1017.34 1018.23 1019.31 1019.46 1020.21 1021.19 1022.07 1022.92 1023.35 1023.71 1023.99 1024.80 1025.23 1025.89 1026.24 1027.03 1026.97 1026.67
1019.83 1019.22 1018.78 1018.15 1017.39 1016.65 1016.11 1015.37 1014.65 1013.82 1013.08 1012.38 1011.71 1011.34 1011.16 1011.01 1011.10 1010.86 1010.92 1011.86 1013.55 1014.98 1015.83 1016.43 1016.99 1017.56 1018.40 1018.97 1019.15 1020.15 1021.22 1022.28 1022.92 1023.55 1023.81 1024.55 1025.26 1025.22 1025.73 1026.34 1026.92 1026.88 1026.88
1019.60 1019.14 1018.65 1017.95 1017.46 1016.87 1016.33 1015.68 1015.01 1014.38 1013.74 1013.15 1012.69 1012.33 1012.10 1012.02 1012.23 1012.29 1011.71 1012.74 1014.07 1015.29 1016.26 1016.96 1017.60 1018.13 1018.44 1018.92 1019.91 1020.78 1021.45 1022.25 1022.91 1023.34 1024.14 1024.69 1025.16 1025.16 1025.76 1026.42 1026.60 1026.75 1026.82
1019.75 1018.99 1018.67 1017.84 1017.42 1017.11 1016.67 1016.07 1015.48 1014.98 1014.49 1014.07 1013.83 1013.53 1012.91 1013.12 1013.44 1013.49 1013.64 1014.17 1015.00 1015.68 1016.46 1017.19 1017.90 1018.42 1018.99 1019.66 1020.28 1020.89 1021.54 1022.09 1022.62 1023.43 1024.06 1024.43 1025.03 1025.56 1026.02 1026.18 1026.51 1026.88 1026.77
1019.77 1019.17 1018.65 1018.06 1017.64 1017.24 1016.89 1016.45 1015.95 1015.52 1015.07 1014.74 1014.59 1014.37 1013.92 1014.08 1014.37 1014.49 1014.72 1015.23 1015.72 1016.31 1016.90 1017.42 1018.05 1018.61 1019.16 1019.70 1020.22 1020.69 1021.14 1021.79 1022.69 1023.23 1023.56 1024.36 1025.15 1025.55 1025.83 1026.13 1026.40 1026.41 1026.56
1019.51 1019.06 1018.66 1018.14 1017.82 1017.44 1017.02 1016.73 1016.34 1015.96 1015.60 1015.27 1015.14 1015.04 1014.93 1014.75 1014.83 1015.06 1015.49 1016.03 1016.51 1016.98 1017.42 1017.72 1018.21 1018.77 1019.32 1019.60 1020.08 1020.42 1020.94 1021.44 1021.99 1022.65 1023.43 1024.15 1024.72 1025.00 1025.40 1025.54 1025.88 1026.18 1026.38
1019.48 1019.05 1018.71 1018.28 1017.89 1017.51 1017.14 1016.85 1016.58 1016.33 1016.15 1015.86 1015.67 1015.58 1015.57 1015.58 1015.59 1015.75 1016.08 1016.50 1016.91 1017.40 1017.85 1018.16 1018.36 1018.55 1019.15 1019.65 1020.25 1020.73 1021.07 1021.48 1022.10 1022.70 1023.19 1023.66 1024.14 1024.58 1024.83 1025.29 1025.53 1025.84 1026.06
1019.30 1019.00 1018.65 1018.37 1018.04 1017.62 1017.28 1016.93 1016.64 1016.45 1016.37 1016.23 1016.06 1016.00 1016.00 1016.13 1016.14 1016.28 1016.55 1016.86 1017.20 1017.51 1017.98 1018.35 1018.60 1018.67 1019.06 1019.52 1020.02 1020.57 1021.07 1021.46 1022.14 1022.56 1023.06 1023.39 1023.67 1024.10 1024.54 1024.88 1025.13 1025.45 1025.71
1019.03 1018.80 1018.51 1018.24 1017.97 1017.68 1017.50 1017.17 1016.83 1016.63 1016.51 1016.44 1016.37 1016.38 1016.38 1016.39 1016.46 1016.55 1016.71 1017.01 1017.33 1017.61 1017.95 1018.24 1018.48 1018.79 1019.07 1019.37 1019.75 1020.23 1020.81 1021.29 1021.70 1022.31 1022.70 1022.99 1023.26 1023.64 1024.04 1024.41 1024.77 1024.96 1024.95
Wind_Speed
7 7 8 8 8 8 8 9 9 8 8 8 8 8 8 8 7 7 7 7 7 6 4 5 5 4 3 3 3 4 5 3 6 3 5 9 7 6 6 5 4 5 5
7 8 9 9 9 10 10 9 8 9 8 9 9 9 9 9 8 8 8 6 7 7 6 6 6 4 5 4 3 4 4 4 3 10 10 7 6 6 6 6 4 4 5
7 8 9 11 11 12 11 10 10 10 10 10 9 10 9 9 9 8 8 7 8 8 7 8 7 7 6 4 4 4 3 2 3 7 7 6 4 4 5 4 5 5 4
6 7 10 11 11 11 11 10 10 10 10 10 10 10 10 10 9 9 9 9 9 8 7 7 7 7 6 5 4 4 4 5 6 8 7 6 6 4 3 5 5 4 4
8 8 9 10 10 10 11 11 11 11 11 11 10 11 10 10 9 11 10 10 9 8 7 7 6 5 5 4 4 4 5 4 6 7 7 5 6 5 5 3 3 3 4
8 9 9 9 9 10 11 11 12 12 12 11 12 12 12 9 11 14 11 10 10 10 9 8 8 9 10 11 10 7 3 5 6 5 5 8 7 6 5 4 3 3 3
10 9 8 9 10 9 9 10 11 12 12 13 13 12 13 12 13 15 14 8 9 10 10 10 9 7 10 11 15 16 13 11 5 3 7 7 8 5 4 6 4 3 1
10 10 9 9 10 9 9 10 11 11 12 12 13 13 12 10 14 16 15 11 10 11 11 12 11 12 12 13 11 10 10 9 7 6 8 8 9 7 6 4 5 4 3
10 12 11 11 11 10 10 11 10 10 11 11 11 13 13 13 19 17 14 9 9 10 9 10 11 12 15 17 12 10 11 11 10 14 17 17 15 12 9 5 4 4 2
13 13 13 12 10 11 11 10 9 10 10 8 10 11 13 12 17 22 23 9 7 5 5 4 9 11 19 19 11 12 11 11 11 11 11 13 13 10 11 6 3 2 3
13 13 12 11 11 11 11 9 9 9 10 10 11 10 10 9 11 19 21 9 9 11 8 7 6 12 18 16 11 9 10 12 13 9 8 7 7 6 6 5 4 2 2
12 12 11 10 9 9 9 9 8 9 10 10 10 10 8 8 12 18 22 16 13 9 10 9 6 14 14 13 10 11 18 14 8 8 7 7 6 6 6 5 4 2 3
11 10 10 10 9 9 10 10 9 8 9 10 8 9 8 7 7 19 20 20 17 8 6 12 19 21 19 13 14 16 13 6 7 7 6 6 5 5 6 5 4 4 4
10 11 10 10 11 9 8 8 8 8 8 8 9 9 8 7 7 7 8 11 16 12 15 11 14 13 14 10 12 11 4 4 5 6 7 6 6 5 4 2 3 2 3
10 10 9 8 10 10 8 8 8 9 10 9 8 8 7 8 9 14 13 8 10 12 10 8 7 9 9 7 7 7 5 5 6 6 6 6 5 5 4 3 2 2 2
10 9 9 9 9 9 9 9 13 16 19 20 19 15 7 16 17 20 23 20 24 24 10 8 8 8 8 8 8 7 6 6 5 5 6 7 5 5 5 3 3 1 1
8 9 8 8 9 9 9 9 10 10 17 18 16 19 17 11 17 19 23 23 24 22 6 8 8 8 8 7 7 7 6 6 7 5 6 5 6 5 5 4 3 3 3
8 8 7 8 8 8 9 9 8 9 9 9 11 15 11 13 14 18 18 20 12 7 6 8 8 8 8 8 7 6 6 6 5 5 5 5 5 6 5 5 4 4 2
6 6 7 7 7 8 8 9 8 9 8 8 7 5 8 5 10 15 21 7 9 7 5 6 6 7 7 6 6 6 7 6 6 5 5 5 5 5 5 4 4 4 3
5 6 6 6 6 7 7 7 7 8 8 7 5 3 3 5 3 4 5 8 8 7 6 6 5 5 5 6 6 6 6 7 6 5 5 5 5 4 4 5 4 5 4
5 6 6 5 5 6 6 7 7 7 6 5 4 5 3 3 3 4 5 6 5 6 7 6 5 5 5 5 6 6 7 6 6 6 5 5 4 4 4 4 4 4 3
5 5 5 5 5 6 6 6 6 6 5 5 3 4 7 4 3 4 5 5 5 5 4 5 5 5 6 7 7 7 7 7 7 6 6 5 5 5 4 4 4 3 3
5 6 6 5 5 6 5 5 5 5 5 4 4 4 3 3 2 3 3 4 4 4 3 4 4 4 4 5 5 6 7 7 7 7 7 7 6 6 5 5 5 4 5
5 6 6 6 5 5 5 5 5 5 5 5 4 4 3 3 2 0 2 3 3 3 3 3 3 5 5 5 4 4 3 4 5 6 7 6 6 6 5 5 5 6 5
6 6 6 6 7 6 6 6 5 5 5 4 4 3 3 3 2 2 1 1 2 3 4 3 3 4 6 7 6 7 7 9 7 7 6 6 7 8 6 5 5 5 6
6 6 6 6 6 6 6 6 6 5 5 4 4 4 3 3 3 3 2 3 3 3 3 3 4 6 6 6 8 9 10 11 10 11 7 7 7 6 6 7 8 6 7
Wind_Direction
259 264 263 263 261 260 260 262 262 268 258 253 251 255 256 257 253 258 262 265 253 244 232 227 220 208 204 207 210 213 199 197 150 122 121 143 136 149 132 124 122 116 108
280 274 271 274 271 265 263 263 263 261 260 258 253 250 250 250 248 246 245 235 240 234 220 213 208 197 199 201 205 198 195 189 147 151 146 157 147 142 136 128 112 102 121
269 263 264 259 256 256 257 254 250 251 252 251 251 252 252 248 246 242 243 236 230 229 220 218 209 205 203 195 190 175 154 138 139 145 134 153 129 159 148 117 101 98 103
291 278 268 268 262 264 263 259 259 255 255 253 250 251 249 248 243 239 229 226 224 222 215 216 205 208 206 190 183 172 156 136 131 137 132 142 140 135 137 149 140 105 127
308 290 284 286 284 280 270 263 256 247 246 249 252 249 249 244 237 229 224 225 220 210 202 198 193 171 123 150 179 172 174 153 149 148 146 150 148 155 170 140 132 134 116
309 297 296 287 282 274 272 268 258 249 242 238 238 242 245 243 245 233 228 219 210 204 200 191 170 157 149 139 126 111 103 179 166 159 153 157 149 141 142 126 120 148 158
324 322 311 301 287 275 273 272 266 263 255 245 240 234 236 239 233 230 220 230 220 215 198 184 175 175 163 145 132 118 101 85 55 169 151 138 138 139 137 123 107 103 50
328 331 330 319 304 292 280 272 272 269 262 255 247 235 236 238 223 222 207 220 227 222 210 195 187 176 175 155 140 119 111 95 95 106 110 108 111 116 114 99 105 85 105
334 333 332 324 312 304 289 283 276 267 261 257 256 247 234 216 204 215 208 210 223 224 215 208 190 180 171 159 150 140 117 108 104 108 110 103 99 105 104 120 113 162 142
335 327 323 317 306 298 292 286 281 269 270 262 251 250 254 253 226 201 179 180 219 205 211 207 211 195 177 177 163 150 146 142 136 119 112 102 92 88 83 82 100 127 112
324 321 320 321 313 304 297 292 283 275 270 264 261 257 245 238 246 223 204 188 176 174 192 193 197 192 189 181 169 157 158 149 147 135 131 125 124 110 95 81 68 65 117
324 319 317 316 313 309 301 296 284 278 273 270 265 262 249 245 218 226 217 186 191 179 174 162 171 185 180 175 157 171 152 144 146 148 149 149 145 129 120 110 90 87 62
319 313 312 314 310 308 304 296 292 279 275 275 269 267 258 234 219 219 219 188 186 170 159 167 178 174 174 152 157 147 133 155 153 157 152 133 122 119 126 136 129 100 109
314 315 317 317 320 312 305 297 290 283 279 271 267 260 257 234 212 211 211 185 183 163 170 171 185 158 126 143 135 121 151 144 150 140 136 131 133 143 142 149 119 118 158
313 312 315 316 314 311 306 300 292 284 271 277 273 265 249 236 225 211 203 179 160 160 157 174 150 134 125 121 122 127 135 141 139 135 136 143 151 150 140 133 124 113 161
320 325 326 320 320 317 318 312 300 293 291 277 269 262 243 246 245 230 216 178 162 162 157 159 150 142 147 153 155 156 156 165 144 150 150 152 157 164 151 144 133 145 180
320 320 323 320 323 324 321 313 311 311 307 301 284 283 235 235 249 239 224 175 171 152 146 161 163 158 150 163 170 164 169 170 148 161 161 153 142 151 161 158 180 188 200
319 314 320 322 321 322 317 312 307 311 314 311 303 293 242 219 254 247 201 168 153 144 161 162 159 159 165 172 164 159 153 141 163 160 159 150 152 161 166 172 193 200 205
318 319 322 318 317 320 312 312 311 311 307 305 293 25 15 302 267 262 187 159 145 142 147 149 153 153 159 161 148 147 148 160 163 165 159 162 170 163 171 173 185 184 188
306 301 310 318 321 324 320 317 318 317 312 307 301 349 349 2 28 27 49 120 137 135 142 141 142 145 146 142 146 150 153 159 165 169 177 176 173 169 175 182 188 186 202
313 317 319 317 323 320 315 317 318 314 312 312 327 319 48 90 86 87 89 95 118 133 140 143 148 149 150 154 158 164 170 171 171 174 179 173 166 179 191 188 188 204 220
306 311 313 319 318 317 319 315 314 310 309 303 305 343 52 86 97 95 96 106 110 118 129 145 154 165 172 175 174 171 170 173 175 178 170 168 179 186 176 190 201 204 204
299 308 308 312 310 309 308 311 309 308 305 302 297 306 340 5 52 92 112 119 127 131 134 149 154 162 166 166 171 176 179 183 178 172 176 180 184 188 188 192 194 206 214
297 302 305 303 301 303 300 301 302 301 304 301 299 299 300 302 307 19 100 123 136 133 141 156 180 176 169 167 170 175 172 148 157 177 179 181 186 180 185 196 206 214 228
290 292 294 297 298 299 297 289 287 288 289 290 289 287 294 290 273 256 180 160 165 170 183 184 193 188 189 185 187 186 181 186 178 176 180 191 196 187 194 205 214 217 221
281 281 282 286 285 286 287 288 287 284 279 278 274 273 274 267 263 252 224 213 218 224 220 209 211 208 204 211 213 200 190 193 193 192 191 194 193 195 196 212 218 224 227